When you browse on this site, cookies collect data to enhance your experience and personalize the content and advertising you see.
Visit our Privacy Policy to learn more. By continuing to use the site, you agree to this use of cookies and data.
EN

Hourly Weather Dahab

Today, 11 August, Tuesday

Time Temperature Precipitation Wind Pressure Humidity
00:00 +28°C° 0 mm 3 mps 711 mmHg 35%
01:00 +27°C° 0 mm 3 mps 710 mmHg 37%
02:00 +26°C° 0 mm 3 mps 710 mmHg 42%
03:00 +26°C° 0 mm 2 mps 710 mmHg 44%
04:00 +25°C° 0 mm 2 mps 710 mmHg 46%
05:00 +25°C° 0 mm 2 mps 711 mmHg 47%
06:00 +27°C° 0 mm 2 mps 711 mmHg 41%
07:00 +29°C° 0 mm 2 mps 711 mmHg 35%
08:00 +31°C° 0 mm 2 mps 712 mmHg 29%
09:00 +33°C° 0 mm 3 mps 712 mmHg 28%
10:00 +35°C° 0 mm 3 mps 712 mmHg 27%
11:00 +36°C° 0 mm 3 mps 712 mmHg 25%
12:00 +36°C° 0 mm 3 mps 711 mmHg 25%
13:00 +37°C° 0 mm 3 mps 711 mmHg 24%
14:00 +37°C° 0 mm 3 mps 710 mmHg 24%
15:00 +37°C° 0 mm 3 mps 710 mmHg 23%
16:00 +37°C° 0 mm 3 mps 710 mmHg 23%
17:00 +36°C° 0 mm 2 mps 710 mmHg 23%
18:00 +35°C° 0 mm 2 mps 710 mmHg 27%
19:00 +32°C° 0 mm 2 mps 710 mmHg 30%
20:00 +30°C° 0 mm 2 mps 710 mmHg 34%
21:00 +29°C° 0 mm 3 mps 710 mmHg 35%
22:00 +29°C° 0 mm 3 mps 710 mmHg 36%
23:00 +28°C° 0 mm 4 mps 710 mmHg 38%

Tomorrow, 12 August, Wednesday

Time Temperature Precipitation Wind Pressure Humidity
00:00 +27°C° 0 mm 3 mps 710 mmHg 40%
01:00 +27°C° 0 mm 3 mps 709 mmHg 41%
02:00 +26°C° 0 mm 2 mps 709 mmHg 43%
03:00 +25°C° 0 mm 3 mps 709 mmHg 46%
04:00 +25°C° 0 mm 3 mps 709 mmHg 49%
05:00 +24°C° 0 mm 3 mps 709 mmHg 52%
06:00 +27°C° 0 mm 3 mps 709 mmHg 46%
07:00 +29°C° 0 mm 3 mps 710 mmHg 40%
08:00 +31°C° 0 mm 3 mps 710 mmHg 34%
09:00 +34°C° 0 mm 3 mps 710 mmHg 31%
10:00 +35°C° 0 mm 3 mps 710 mmHg 29%
11:00 +36°C° 0 mm 4 mps 710 mmHg 27%
12:00 +37°C° 0 mm 4 mps 710 mmHg 27%
13:00 +37°C° 0 mm 3 mps 709 mmHg 26%
14:00 +37°C° 0 mm 3 mps 709 mmHg 26%
15:00 +37°C° 0 mm 3 mps 709 mmHg 26%
16:00 +37°C° 0 mm 2 mps 708 mmHg 26%
17:00 +36°C° 0 mm 2 mps 708 mmHg 25%
18:00 +35°C° 0 mm 2 mps 708 mmHg 28%
19:00 +32°C° 0 mm 2 mps 709 mmHg 30%
20:00 +30°C° 0 mm 2 mps 709 mmHg 32%
21:00 +30°C° 0 mm 3 mps 709 mmHg 34%
22:00 +29°C° 0 mm 3 mps 709 mmHg 36%
23:00 +29°C° 0 mm 3 mps 709 mmHg 38%

Day after tomorrow, 13 August, Thursday

Time Temperature Precipitation Wind Pressure Humidity
00:00 +28°C° 0 mm 3 mps 708 mmHg 40%
01:00 +27°C° 0 mm 3 mps 708 mmHg 42%
02:00 +27°C° 0 mm 3 mps 708 mmHg 43%
03:00 +26°C° 0 mm 3 mps 708 mmHg 43%
04:00 +26°C° 0 mm 3 mps 708 mmHg 43%
05:00 +25°C° 0 mm 3 mps 708 mmHg 43%
06:00 +28°C° 0 mm 3 mps 708 mmHg 37%
07:00 +30°C° 0 mm 3 mps 708 mmHg 31%
08:00 +33°C° 0 mm 3 mps 709 mmHg 26%
09:00 +35°C° 0 mm 3 mps 709 mmHg 24%
10:00 +36°C° 0 mm 4 mps 709 mmHg 23%
11:00 +37°C° 0 mm 5 mps 709 mmHg 22%
12:00 +38°C° 0 mm 4 mps 708 mmHg 22%
13:00 +38°C° 0 mm 4 mps 708 mmHg 22%
14:00 +39°C° 0 mm 3 mps 707 mmHg 22%
15:00 +38°C° 0 mm 3 mps 707 mmHg 22%
16:00 +38°C° 0 mm 2 mps 707 mmHg 22%
17:00 +38°C° 0 mm 2 mps 706 mmHg 23%
18:00 +36°C° 0 mm 2 mps 707 mmHg 25%
19:00 +34°C° 0 mm 2 mps 707 mmHg 28%
20:00 +31°C° 0 mm 2 mps 707 mmHg 30%
21:00 +30°C° 0 mm 3 mps 707 mmHg 35%
22:00 +30°C° 0 mm 4 mps 707 mmHg 40%
23:00 +29°C° 0 mm 4 mps 707 mmHg 44%

14 August, Friday

Time Temperature Precipitation Wind Pressure Humidity
00:00 +29°C° 0 mm 4 mps 707 mmHg 43%
01:00 +28°C° 0 mm 4 mps 707 mmHg 42%
02:00 +28°C° 0 mm 3 mps 707 mmHg 40%
03:00 +28°C° 0 mm 3 mps 706 mmHg 40%
04:00 +27°C° 0 mm 3 mps 706 mmHg 39%
05:00 +27°C° 0 mm 3 mps 706 mmHg 38%
06:00 +29°C° 0 mm 3 mps 707 mmHg 33%
07:00 +31°C° 0 mm 3 mps 707 mmHg 29%
08:00 +34°C° 0 mm 3 mps 708 mmHg 24%
09:00 +36°C° 0 mm 3 mps 708 mmHg 23%
10:00 +37°C° 0 mm 4 mps 708 mmHg 22%
11:00 +38°C° 0 mm 4 mps 708 mmHg 21%
12:00 +38°C° 0 mm 4 mps 707 mmHg 21%
13:00 +39°C° 0 mm 3 mps 707 mmHg 21%
14:00 +39°C° 0 mm 3 mps 706 mmHg 21%
15:00 +39°C° 0 mm 3 mps 706 mmHg 22%
16:00 +38°C° 0 mm 2 mps 706 mmHg 23%
17:00 +38°C° 0 mm 2 mps 705 mmHg 23%
18:00 +36°C° 0 mm 2 mps 706 mmHg 25%
19:00 +34°C° 0 mm 2 mps 706 mmHg 28%
20:00 +32°C° 0 mm 2 mps 706 mmHg 30%
21:00 +31°C° 0 mm 2 mps 706 mmHg 32%
22:00 +30°C° 0 mm 3 mps 706 mmHg 35%
23:00 +29°C° 0 mm 3 mps 706 mmHg 37%

15 August, Saturday

Time Temperature Precipitation Wind Pressure Humidity
00:00 +29°C° 0 mm 3 mps 706 mmHg 36%
01:00 +29°C° 0 mm 3 mps 706 mmHg 36%
02:00 +28°C° 0 mm 3 mps 706 mmHg 36%
03:00 +28°C° 0 mm 3 mps 706 mmHg 35%
04:00 +27°C° 0 mm 2 mps 706 mmHg 34%
05:00 +27°C° 0 mm 2 mps 706 mmHg 33%
06:00 +29°C° 0 mm 2 mps 707 mmHg 28%
07:00 +31°C° 0 mm 2 mps 707 mmHg 24%
08:00 +35°C° 0 mm 2 mps 708 mmHg 19%
09:00 +36°C° 0 mm 2 mps 708 mmHg 19%
10:00 +37°C° 0 mm 3 mps 707 mmHg 19%
11:00 +38°C° 0 mm 3 mps 707 mmHg 19%
12:00 +38°C° 0 mm 3 mps 707 mmHg 19%
13:00 +39°C° 0 mm 3 mps 707 mmHg 19%
14:00 +39°C° 0 mm 3 mps 706 mmHg 18%
15:00 +39°C° 0 mm 3 mps 706 mmHg 19%
16:00 +39°C° 0 mm 2 mps 706 mmHg 20%
17:00 +38°C° 0 mm 2 mps 705 mmHg 21%
18:00 +36°C° 0 mm 2 mps 706 mmHg 23%
19:00 +35°C° 0 mm 2 mps 706 mmHg 25%
20:00 +32°C° 0 mm 2 mps 706 mmHg 27%
21:00 +31°C° 0 mm 2 mps 706 mmHg 28%
22:00 +30°C° 0 mm 3 mps 706 mmHg 30%
23:00 +30°C° 0 mm 3 mps 706 mmHg 31%

16 August, Sunday

Time Temperature Precipitation Wind Pressure Humidity
00:00 +29°C° 0 mm 3 mps 706 mmHg 31%
01:00 +29°C° 0 mm 3 mps 706 mmHg 32%
02:00 +28°C° 0 mm 3 mps 706 mmHg 33%
03:00 +28°C° 0 mm 2 mps 706 mmHg 33%
04:00 +27°C° 0 mm 2 mps 706 mmHg 34%
05:00 +27°C° 0 mm 1 mps 706 mmHg 35%
06:00 +29°C° 0 mm 2 mps 706 mmHg 30%
07:00 +32°C° 0 mm 2 mps 707 mmHg 25%
08:00 +35°C° 0 mm 2 mps 707 mmHg 21%
09:00 +36°C° 0 mm 2 mps 707 mmHg 20%
10:00 +37°C° 0 mm 3 mps 707 mmHg 20%
11:00 +38°C° 0 mm 3 mps 708 mmHg 19%
12:00 +39°C° 0 mm 3 mps 707 mmHg 19%
13:00 +39°C° 0 mm 3 mps 707 mmHg 18%
14:00 +39°C° 0 mm 3 mps 707 mmHg 18%
15:00 +39°C° 0 mm 2 mps 706 mmHg 19%
16:00 +39°C° 0 mm 2 mps 706 mmHg 19%
17:00 +37°C° 0 mm 1 mps 706 mmHg 20%
18:00 +35°C° 0 mm 1 mps 706 mmHg 22%
19:00 +35°C° 0 mm 2 mps 706 mmHg 24%
20:00 +32°C° 0 mm 2 mps 706 mmHg 26%
21:00 +31°C° 0 mm 2 mps 706 mmHg 27%
22:00 +30°C° 0 mm 2 mps 707 mmHg 27%
23:00 +30°C° 0 mm 2 mps 707 mmHg 28%
Show more